Location: Beuvrequen
(50.8014°N, 1.6652°E)
Time: 03:53:46
(UTC+00:00)

Cosmos 1908 - Pass Details

Date: 16 October 2021
Orbit: 509 x 528 km, 82.5° (Epoch: 05 December)

Event Time Altitude Azimuth Distance (km) Brightness Sun altitude
Rises 17:41:13 0° 161° (SSE) 2,656 6.7 -7.5°
Reaches altitude 10° 17:43:33 10° 150° (SSE) 1,770 5.7 -7.8°
Maximum altitude 17:46:54 28° 91° (E) 1,008 4.1 -8.4°
Drops below altitude 10° 17:50:16 10° 31° (NNE) 1,777 5.6 -8.9°
Sets 17:52:36 0° 20° (NNE) 2,668 6.6 -9.3°
